Jendouba, Tunisia

3:33 AM CET on October 15, 2019 (GMT +0100)
Jendouba

Weather History for DTTN - August, 2019

Change the Weather History Date:

Sunday, August 11, 2019

  Actual Average (WUND) Record (WUND)
Temperature  
Mean Temperature 89 °F -  
Max Temperature 107 °F 94 °F - (-1)
Min Temperature 71 °F 65 °F - (-1)
Cooling Degree Days 24    
Growing Degree Days 39 (Base 50)    
Moisture  
Dew Point 49 °F    
Average Humidity 26    
Maximum Humidity 50    
Minimum Humidity 5    
Precipitation  
Precipitation 0.00 in 0.03 in - ()
Sea Level Pressure  
Sea Level Pressure 29.94 in    
Wind  
Wind Speed 4 mph ()    
Max Wind Speed 16 mph    
Max Gust Speed -    
Visibility 6.7 miles    
Events      
Averages and records for this station are not official NWS values.
T = Trace of Precipitation, MM = Missing Value Source: Averaged Metar Reports

Daily Weather History Graph

Daily Weather History Graph

Search for Another Location

Airport or City:

Astronomy

Aug. 11, 2019 Rise Set
Actual Time 5:38 AM CET 7:20 PM CET
Civil Twilight 5:11 AM CET 7:48 PM CET
Nautical Twilight 4:37 AM CET 8:21 PM CET
Astronomical Twilight 4:02 AM CET 8:57 PM CET
Moon 4:41 PM CET (8/11) 1:50 AM CET (8/11)
Length of Visible Light 14h 37m
Length of Day
13h 41m
Waxing Gibbous, 85% of the Moon is Illuminated
Aug 11
Waxing Gibbous
Aug 15
Full
Aug 23
Last Quarter
Aug 30
New
Sep 6
First Quarter

Hourly Weather History & Observations

Time (CET) Temp. Heat Index Dew Point Humidity Pressure Visibility Wind Dir Wind Speed Gust Speed Precip Events Conditions
12:00 AM 82.4 °F 81.4 °F 53.6 °F 37% 30.01 in 5.0 mi NNE 3.5 mph - N/A   Unknown
1:00 AM 77 °F - 50 °F 28% 29.99 in 5 mi SW 3.5 mph - -  
2:00 AM 77.0 °F - 48.2 °F 36% 29.98 in 5.0 mi SW 3.5 mph - N/A   Unknown
3:00 AM 73.4 °F - 46.4 °F 38% 29.98 in 5.0 mi SSW 4.6 mph - N/A   Unknown
4:00 AM 72 °F - 47 °F 30% 29.98 in 5 mi SW 3.5 mph - -  
5:00 AM 71.6 °F - 50.0 °F 46% 29.98 in - WSW 3.5 mph - N/A   Clear
6:00 AM 71.6 °F - 51.8 °F 50% 29.98 in - SW 3.5 mph - N/A   Clear
7:00 AM 75 °F - 52 °F 34% 29.99 in 9 mi SW 3.5 mph - -  
7:00 AM 75.2 °F - 51.8 °F 44% 30.01 in - SW 3.5 mph - N/A   Clear
8:00 AM 80.6 °F 80.3 °F 53.6 °F 39% 30.01 in - Variable 2.3 mph - N/A   Clear
9:00 AM 87.8 °F - 51.8 °F 29% 29.98 in - Variable 2.3 mph - N/A   Clear
10:00 AM 92 °F - 54 °F 18% 29.96 in 9 mi NNW 2.3 mph - -   Clear
10:00 AM 93.2 °F 90.8 °F 53.6 °F 26% 29.98 in - Variable 2.3 mph - N/A   Clear
11:00 AM 98.6 °F 96.4 °F 53.6 °F 22% 29.95 in - Variable 2.3 mph - N/A   Clear
12:00 PM 102.2 °F - 46.4 °F 15% 29.95 in - Variable 2.3 mph - N/A   Clear
1:00 PM 104 °F - 47 °F 8% 29.89 in 9 mi East 2.3 mph - -   Clear
1:00 PM 104.0 °F - 48.2 °F 15% 29.92 in - Variable 2.3 mph - N/A   Clear
2:00 PM 105.8 °F - 42.8 °F 12% 29.92 in - ENE 5.8 mph - N/A   Clear
3:00 PM 105.8 °F - 44.6 °F 13% 29.89 in - NNE 6.9 mph - N/A   Clear
4:00 PM 107 °F - 41 °F 5% 29.84 in 9 mi ENE 8.1 mph - -   Clear
4:00 PM 105.8 °F - 41.0 °F 11% 29.89 in - ENE 8.1 mph - N/A   Clear
5:00 PM 105.8 °F - 37.4 °F 10% 29.86 in - East 8.1 mph - N/A   Clear
7:00 PM 99 °F - 51 °F 12% 29.85 in 9 mi ENE 16.1 mph - -   Clear
8:00 PM 93.2 °F 90.8 °F 53.6 °F 26% 29.89 in - NE 16.1 mph - N/A   Clear
9:00 PM 87.8 °F 85.7 °F 53.6 °F 31% 29.92 in - NE 5.8 mph - N/A   Clear
10:00 PM 86 °F - 55 °F 24% 29.92 in 5 mi NNE 3.5 mph - -  
10:00 PM 86.0 °F 84.5 °F 55.4 °F 35% 29.95 in 5.0 mi NNE 3.5 mph - N/A   Unknown